User: anonymous   Login
Location: Estes Park
(40.3770°N, 105.5210°W)
Time: 01:27:02
(UTC-07:00)
Language:

Tiangong 2 - Orbit

View from above orbital plane
View from above orbital plane
View from above satellite
View from above satellite

Ground track
Ground track

The orbit data is extracted from the following two-line orbital elements,

1 41765U 16057A   17348.77469907  .00005001  00000-0  65152-4 0  9993
2 41765  42.7855   1.6430 0002743  25.7649 316.7124 15.59822619 71166
Epoch (UTC): 14 December 2017 18:35:34
Eccentricity: 0.0002743
inclination: 42.7855°
perigee height: 386 km
apogee height: 390 km
right ascension of ascending node: 1.6430°
argument of perigee: 25.7649°
revolutions per day: 15.59822619
mean anomaly at epoch: 316.7124°
orbit number at epoch: 7116

The dashed part of the orbit path shows where the satellite is in the earth's shadow,  

DLR